Regional Weather Roundup
Issued by NWS

Home | Current Version | Previous Version | Text Only | Print | Product List | Glossary On
Versions: 1 2 3 4 5 6 7 8 9 10 11 12 13 14 15 16 17 18 19 20 21 22 23 24 25 26 27 28 29 30 31 32 33 34 35 36 37 38 39 40 41 42 43 44 45 46 47 48 49 50
000
ASUS43 KIND 250409
RWRIN

WEATHER ROUNDUP FOR INDIANA
NATIONAL WEATHER SERVICE INDIANAPOLIS IN
1100 PM EST WED DEC 24 2014

NOTE: "FAIR" INDICATES FEW OR NO CLOUDS BELOW 12,000 FEET WITH NO
SIGNIFICANT WEATHER AND/OR OBSTRUCTIONS TO VISIBILITY.

* - STATION DOES NOT REPORT WEATHER SUCH AS PRECIPITATION OR FOG.

+ - STATION NOT QUALITY CONTROLLED BY THE NATIONAL WEATHER SERVICE.
    USE DATA WITH CAUTION...ESPECIALLY DEWPOINT AND RELATIVE
    HUMIDITY OBSERVATIONS.

INZ001>003-010>013-019-020-250500-
NORTHWEST INDIANA

CITY           SKY/WX    TMP DP  RH WIND       PRES   REMARKS
GARY /AIRPORT/ CLOUDY    38  32  79 W10       29.60R
KNOX *+        CLOUDY    36  31  83 W20       29.59R
LA PORTE +     CLOUDY    37  36  96 W14G20    29.58R
MICHIGAN CITY+ CLOUDY    36  32  87 W15G21    29.58R
MONTICELLO +   CLOUDY    35  34  94 W15G21    29.64R WCI  26
RENSSELAER +   CLOUDY    36  36 100 W16G22    29.63R
VALPARAISO     CLOUDY    35  33  92 W16       29.60R WCI  25

$$

LMZ046-743>745-250500-
SOUTHERN LAKE MICHIGAN

STATION/POSITION TIME  TEMP WIND        PRES
                       AIR  DIR/SP/G
                 (UTC) (F)  (DEG/KT/KT) (MB)
MICHIGAN CITY    0400   36  220/ 21/ 25   N/A

$$

INZ004-005-014>016-021>024-250500-
NORTH CENTRAL INDIANA

CITY           SKY/WX    TMP DP  RH WIND       PRES   REMARKS
GOSHEN         CLOUDY    36  34  92 SW15      29.56R
LOGANSPORT +   CLOUDY    34  32  93 W16       29.64R WCI  23
PERU/GRISSOM   CLOUDY    36  36 100 W14G21    29.62R
ROCHESTER +    CLOUDY    37  36  93 SW10G21   29.61R
SOUTH BEND     CLOUDY    37  34  89 W10       29.56R
WARSAW +       CLOUDY    34  34 100 W13       29.58R FOG     WCI  25

$$

INZ006>009-017-018-025>027-250500-
NORTHEAST INDIANA

CITY           SKY/WX    TMP DP  RH WIND       PRES   REMARKS
ANGOLA *+      CLOUDY    36  34  93 W10       29.53R
AUBURN +       CLOUDY    36  32  87 SW7G17    29.58R
FORT WAYNE     DRIZZLE   36  34  92 W16       29.60R
HUNTINGTON +   CLOUDY    36  34  94 W12G22    29.60S

$$

INZ028-029-035-036-043>045-051>053-250500-
WEST CENTRAL INDIANA

CITY           SKY/WX    TMP DP  RH WIND       PRES   REMARKS
GREENCASTLE +  CLOUDY    34  32  93 W10G18    29.72R WCI  26
LAFAYETTE      CLOUDY    36  33  89 W14       29.67R
TERRE HAUTE    CLOUDY    37  33  85 W13       29.75R

$$

INZ030>032-037>040-046>048-054>057-064-065-250500-
CENTRAL INDIANA

CITY           SKY/WX    TMP DP  RH WIND       PRES   REMARKS
CP ATTERBURY + CLOUDY    37  34  87 MISG      29.73R
FRANKFORT +    CLOUDY    36  36 100 SW17G25   29.68R
GREENWOOD *+   CLOUDY    36  32  87 W9G20     29.71
INDIANAPOLIS   FLURRIES  35  33  92 W15       29.69R WCI  25
-EAGLE CREEK   LGT RAIN  36  33  89 W8G16     29.68R
KOKOMO *+      CLOUDY    36  34  93 W14       29.64R
MARION +       CLOUDY    35  34  96 W17       29.64R WCI  25
MT COMFORT *+  CLOUDY    37  37 100 W15G22    29.69R
SHELBYVILLE    CLOUDY    39  34  82 SW16      29.69S
ZIONSVILLE +   LGT RAIN  36  32  87 W13G18    29.68R

$$

INZ033-034-041-042-049-050-058-059-250500-
EAST CENTRAL INDIANA

CITY           SKY/WX    TMP DP  RH WIND       PRES   REMARKS
MUNCIE         LGT RAIN  37  34  89 W15G22    29.65R

$$

INZ060-061-067>069-081>083-085>088-250500-
SOUTHWEST INDIANA

CITY           SKY/WX    TMP DP  RH WIND       PRES   REMARKS
EVANSVILLE     CLOUDY    41  35  79 W12       29.84R
HUNTINGBURG *+ CLOUDY    39  34  81 W12       29.82R
WASHINGTON +   CLOUDY    37  33  84 W12G17    29.79R

$$

INZ062-063-066-070>080-084-089>092-250500-
SOUTH CENTRAL AND SOUTHEAST INDIANA

CITY           SKY/WX    TMP DP  RH WIND       PRES   REMARKS
BLOOMINGTON    CLOUDY    37  34  89 W9        29.74R

$$



USA.gov is the U.S. government's official web portal to all federal, state and local government web resources and services.